Other Public Products
Issued by NWS Grand Forks, ND

Home | Current Version | Previous Version | Graphics & Text | Print | Product List | Glossary On
Versions: 1 2 3 4 5 6 7 8 9 10 11 12 13 14 15 16 17 18 19 20 21 22 23 24 25 26 27 28 29 30 31 32 33 34 35 36 37 38 39 40 41 42 43 44 45 46 47 48 49 50
000
FPUS83 KFGF 230931
OPUFGF
PRAIRIE TO PINES WEATHER ROUNDUP
NATIONAL WEATHER SERVICE EASTERN NORTH DAKOTA/GRAND FORKS ND
400 AM CDT TUE SEP 23 2014

 **SATELLITE DATA USED TO AUGMENT SKY COVER AT AUTOMATED STATIONS**
 *****  WEATHER ACROSS EASTERN NORTH DAKOTA  *****

CITY           SKY/WX    TMP DP  RH WIND       PRES   REMARKS
GRAND FORKS    CLEAR     52  48  86 SE8       30.01S
GRAND FORKS AF CLEAR     52  50  95 SE7       30.01S
GRAND CITY NWS   N/A     52 N/A N/A SE9         N/A
BUXTON           N/A     51  51  99 SE6         N/A
DEVILS LAKE    CLEAR     55  46  71 SE3       29.96S
FARGO          CLEAR     58  48  69 SE13      30.03F
WAHPETON ARPT  SUNNY     52  45  76 SE9       30.06S
$$

 *****  WEATHER ACROSS CENTRAL AND WESTERN NORTH DAKOTA  *****

CITY           SKY/WX    TMP DP  RH WIND       PRES   REMARKS
JAMESTOWN      CLEAR     56  50  80 S12       29.97F
BISMARCK       CLEAR     56  52  86 SE8       29.91F
MINOT          CLEAR     53  48  83 SE5       29.89S
MINOT AFB      CLEAR     50  50  98 SE7       29.88F
GARRISON         N/A     56  51  84 SE8       29.90S
WILLISTON      CLEAR     50  46  86 NE3       29.85S
DICKINSON      PTCLDY    52  48  86 S9        29.86F
HETTINGER      PTCLDY    52  49  89 SE3       29.89S
$$

 *****  OTHER OBSERVATIONS NORTHEAST NORTH DAKOTA  *****

CITY           SKY/WX    TMP DP  RH WIND       PRES   REMARKS
WALHALLA       FAIR      50  50 100 SE5       29.98S
LANGDON        FAIR      55  48  76 S10       29.98S
CAVALIER       FAIR      52  48  87 S8        29.99S
GRAFTON        FAIR      48  46  93 SE7       30.01R
CANDO          FAIR      50  48  93 SE8       29.96S
FORT TOTTEN      N/A     57  49  74 SE9       29.95S
ROLLA          FAIR      48  46  93 SW5       29.97S
RUGBY          FAIR      55  50  82 SE7       29.93S
 ***** THE ABOVE OBSERVATIONS ARE NON NWS ARE NOT QUALITY
        CONTROLLED AND MAY MIS-REPORT RAIN FOR SNOW...
$$

 *****  OTHER OBSERVATIONS SOUTHEAST NORTH DAKOTA *****

CITY           SKY/WX    TMP DP  RH WIND       PRES   REMARKS
COOPERSTOWN    NOT AVBL
VALLEY CITY    FAIR      54  54 100 S8        30.01S
OAKES            N/A     54  52  94 SE7       30.01S
GWINNER        SUNNY     55  52  88 SE7       30.03S
BUFFALO          N/A     51  47  87 SE7         N/A
WYNDMERE         N/A     52  50  93 SE5         N/A
 ***** THE ABOVE OBSERVATIONS ARE NON NWS ARE NOT QUALITY
       CONTROLLED AND MAY MIS-REPORT RAIN FOR SNOW...
$$

  *****  WEATHER ACROSS NORTHERN MINNESOTA  *****

CITY           SKY/WX    TMP DP  RH WIND       PRES   REMARKS
FLAG ISLAND    CLEAR     57  52  82 S6        30.05S
WARROAD        CLEAR     52  48  87 S3        30.07S
ROSEAU         CLEAR     48  45  87 S7        30.05S
HALLOCK        CLEAR     52  48  87 SE9       30.01S
THF RVR FALLS  CLEAR     54  46  76 SE8       30.05S
HALSTAD          N/A     49  46  89 SE8         N/A
FOSSTON        CLEAR     52  46  82 SE6       30.08S
BAUDETTE       CLEAR     48  46  93 CALM      30.08S
WASKISH        CLEAR     54  48  82 CALM      30.10S
CROOKSTON      CLEAR     52  48  87 SE8       30.04S
$$
  *****  WEATHER ACROSS CENTRAL AND WEST MINNESOTA  *****

CITY           SKY/WX    TMP DP  RH WIND       PRES   REMARKS
BEMIDJI        FOG       40  40  99 E3        30.11S VSB 1/4
PARK RAPIDS    CLEAR     47  45  93 SE6       30.11F
WADENA         CLEAR     45  43  93 CALM      30.11F
DETROIT LAKES  CLEAR     54  50  87 SE6       30.09F
MOORHEAD       CLEAR     57  52  82 S10       30.05S
FERGUS FALLS   CLEAR     55  46  71 S9        30.09S
ELBOW LAKE     FAIR      53  48  84 SE10      30.09S
MORRIS MN      CLEAR     50  46  87 SE8       30.09S
STAPLES        CLEAR     46  46 100 SE3       30.13S
WHEATON        CLEAR     50  46  87 SE9       30.08F
$$
  *****  WEATHER ELSEWHERE ACROSS MINNESOTA  *****

CITY           SKY/WX    TMP DP  RH WIND       PRES   REMARKS
DULUTH         CLEAR     54  47  77 CALM      30.17S
INTRNTL FALLS  CLEAR     41  40  96 SE3       30.11S
ELY            CLEAR     43  41  93 CALM      30.16S
CLOQUET        CLEAR     46  45  93 CALM      30.16F
BRAINERD       FOG       45  45 100 CALM      30.15S VSB 1/2
HIBBING        CLOUDY    38  37  97 CALM      30.16R FOG
ALEXANDRIA     CLEAR     51  47  86 SE8       30.13S
SAINT CLOUD    CLEAR     48  45  89 CALM      30.15F
MINNEAPOLIS    CLEAR     52  48  86 SE6       30.18S
$$

  *****  WEATHER ACROSS SOUTH DAKOTA  *****

CITY           SKY/WX    TMP DP  RH WIND       PRES   REMARKS
SIOUX FALLS    CLOUDY    60  50  69 S8        30.11S
BROOKINGS      NOT AVBL
WATERTOWN      CLOUDY    54  48  80 S14       30.06F
HURON          CLOUDY    63  52  67 S10G18    30.03F
SISSETON         N/A     52  50  93 SE8       30.05S
ABERDEEN       MOCLDY    60  51  72 S12       30.01F
MITCHELL       CLOUDY    62  54  74 S9        30.06F
PIERRE         CLOUDY    62  54  74 SE15      29.95S
MOBRIDGE       PTCLDY    63  56  78 SE15      29.91F
RAPID CITY     MOCLDY    57  55  93 S7        29.90F
$$

  *****  SOME WEATHER IN NEARBY STATES *****

CITY           SKY/WX    TMP DP  RH WIND       PRES   REMARKS
GLASGOW MT     CLEAR     52  47  83 SE7       29.83S
GREAT FALLS MT CLEAR     62  47  57 SW14      29.95R
CHEYENNE WY    MOCLDY    56  44  64 W12       30.15S
SCOTTSBLUFF NE CLEAR     52  50  93 CALM      30.00F
OMAHA NE       CLOUDY    62  51  67 S12       30.16F
DES MOINES IA  CLEAR     55  50  83 S8        30.21F
DAVENPORT IA   CLEAR     46  42  86 SE3       30.27S
CHICAGO IL     CLEAR     52  43  71 SW3       30.28R
EAU CLAIRE WI  FOG       44  43  96 CALM      30.21R VSB 1/4
LA CROSSE WI   FOG       52  50  93 SE6       30.23S VSB 3/4
$$

  *****  SOME NATIONAL WEATHER *****

CITY           SKY/WX    TMP DP  RH WIND       PRES   REMARKS
LA GUARDIA NY  PTCLDY    54  41  61 N10       30.22R
RALEIGH NC     MOCLDY    61  48  62 NE13G20   30.20R
ATLANTA GA     CLEAR     63  56  78 NE9       30.13S
NEW ORLEANS LA CLEAR     72  56  57 NE16      30.05R
OKLAHOMA CITY  MOCLDY    57  51  80 S6        30.17F
ALBUQUERQUE NM PTCLDY    61  57  87 SE7       30.26S
SALT LAKE CITY PTCLDY    61  52  72 SE6       30.11F
LOS ANGELES CA CLEAR     67  61  82 E3        29.95S
BOISE ID       LGT RAIN  67  55  65 SE6       30.01F
SEATTLE WA     CLOUDY    62  56  80 E6        29.92S
$$

*** WEATHER ACROSS MANITOBA...SASKATCHEWAN AND ONTARIO ***
                ***ONTARIO***

CITY           SKY/WX    TMP DP  RH WIND       PRES   REMARKS
GERALDTON      FOG       48  48 100 CALM      30.10R VSB 3/4
THUNDER BAY    CLEAR     50  48  93 SW7       30.11R
SIOUX LOOKOUT  CLEAR     45  45 100 S2        30.08S
TORONTO        PTCLDY    48  43  81 W14       30.23S
BIG TROUT LK   CLOUDY    45  43  93 SE12      30.10S FOG
PICKLE LAKE    NOT AVBL
DRYDEN         CLEAR     54  50  87 S9        30.09S
KENORA         CLEAR     55  52  88 S7        30.07F
$$
                *** MANITOBA***

CITY           SKY/WX    TMP DP  RH WIND       PRES   REMARKS
BRANDON        CLEAR     48  45  87 E6        29.93F
DAUPHIN        CLEAR     64  48  55 SW10      29.87S
ISLAND LAKE    CLEAR     54  52  94 SE6       29.96F
PILOT MOUND      N/A     50  46  87 SE7         N/A
THE PAS        CLEAR     50  46  87 SE12      29.77F
THOMPSON       PTCLDY    46  46 100 SE6       29.83F
WINNIPEG       CLEAR     55  48  76 S14       29.99F
LYNN LAKE      CLEAR     48  46  93 SE7       29.70F
CHURCHILL      MOCLDY    37  36  93 S17G26    29.93F
GILLAM         CLOUDY    43  43 100 SE8       29.95F
$$
                ***SASKATCHEWAN***

CITY           SKY/WX    TMP DP  RH WIND       PRES   REMARKS
ESTEVAN        CLEAR     50  46  87 E7        29.87
KINDERSLEY     PTCLDY    50  46  87 S6        29.76S
LLOYDMINSTER   CLEAR     57  45  62 W13G18    29.73S
PRINCE ALBERT  CLEAR     45  45 100 E5        29.71F
REGINA         CLEAR     50  48  93 SE9       29.83F
YORKTON        CLEAR     52  48  87 S10       29.85S



USA.gov is the U.S. government's official web portal to all federal, state and local government web resources and services.